Regional Weather Roundup
Issued by NWS

Home | Current Version | Previous Version | Graphics & Text | Print | Product List | Glossary On
Versions: 1 2 3 4 5 6 7 8 9 10 11 12 13 14 15 16 17 18 19 20 21 22 23 24 25 26 27 28 29 30 31 32 33 34 35 36 37 38 39 40 41 42 43 44 45 46 47 48 49 50
000
ASUS43 KLOT 282008
RWRIL

ILLINOIS REGIONAL WEATHER ROUNDUP
NATIONAL WEATHER SERVICE CHICAGO/ROMEOVILLE IL
300 PM CDT SUN AUG 28 2016

NOTE: "FAIR" INDICATES FEW OR NO CLOUDS BELOW 12,000 FEET WITH NO
SIGNIFICANT WEATHER AND/OR OBSTRUCTIONS TO VISIBILITY.

* THESE STATIONS ARE NOT UNDER NWS QUALITY CONTROL. THEY ALSO MAY NOT
  REPORT WEATHER SUCH AS PRECIPITATION OR FOG.

ILZ001-002-007-009-015-016-024-282100-
NORTHWEST ILLINOIS

CITY           SKY/WX    TMP DP  RH WIND       PRES   REMARKS
MOLINE         SUNNY     88  72  58 SE6       30.12F HX  94
STERLING*      PTSUNNY   87  73  62 E5        30.15S HX  94
SAVANNA*       CLOUDY    84  72  67 CALM      30.14F HX  90
$$

ILZ003-004-008-010-011-017-018-282100-
NORTH CENTRAL ILLINOIS

CITY           SKY/WX    TMP DP  RH WIND       PRES   REMARKS
ROCKFORD       PTSUNNY   85  70  60 SE7       30.18S HX  89
FREEPORT*      MOSUNNY   83  69  63 E3        30.19R HX  86
ROCHELLE*      PTSUNNY   86  71  61 CALM      30.17S HX  91
DE KALB*       MOSUNNY   85  72  64 E8        30.19S HX  91
$$

ILZ005-006-012>014-019>023-282100-
NORTHEAST ILLINOIS

CITY           SKY/WX    TMP DP  RH WIND       PRES   REMARKS
CHICAGO-OHARE  CLOUDY    81  70  69 E12       30.19R HX  84
CHICAGO-MIDWAY PTSUNNY   79  68  69 E10       30.20R HX  81
AURORA         CLOUDY    79  69  71 S15G22    30.19R HX  81
LANSING*       CLOUDY    74  70  87 S8        30.21R
JOLIET*        CLOUDY    73  70  92 S6        30.19F
WAUKEGAN       MOSUNNY   74  68  81 E10       30.21R
DUPAGE AIRPORT CLOUDY    86  71  60 SE10G17   30.18R HX  91
KANKAKEE*      PTSUNNY   74  69  86 N6        30.20R THUNDER
WHEELING       CLOUDY    79  69  71 E10       30.21S HX  81
MORRIS*        TSTM      71  69  93 CALM      30.17F
ROMEOVILLE*    TSTM      71  69  94 SE7       30.19F
$$

LMZ740>746-282100-
SOUTHERN LAKE MICHIGAN

STATION/POSITION SKY/WX   TEMP    WIND        PRES    VSBY  WAVE
                          AIR SEA DIR/SP/G                  HT/PER
                          (F)     (DEG/KT/KT) (MB)    (MI)  (FT/S)
SOUTHERN BUOY              72 75   50/  6/  8 1022.2R         1
WILMETTE HARBOR            73 72   80/  6/  6   N/A           1/ 2
HARRISON CRIB              75      60/  8/  8   N/A
BURNHAM HARBOR             74      70/  4/  6   N/A
CALUMET HARBOR             74      60/  8/ 10 1022.3R
BURNS HARBOR               75      30/  4/ 14 1022.7F
MICHIGAN CITY              74      40/  8/  9   N/A
MICHIGAN CITY 6N           76 77   40/  8/ 10   N/A           1/ 3
ST. JOSEPH                 74 76   10/ 10/ 12 1022.1F         1/ 2
$$

ILZ025>027-034>036-040-047-049-050-058-095>099-282100-
WEST-CENTRAL ILLINOIS

CITY           SKY/WX    TMP DP  RH WIND       PRES   REMARKS
QUINCY         CLOUDY    84  73  69 S8        30.13F HX  90
GALESBURG*     CLOUDY    76  69  80 E10       30.15S THUNDER
MACOMB*        CLOUDY    85  74  71 SE5       30.16F HX  92
JACKSONVILLE*  CLOUDY    84  75  73 NE3       30.13S HX  92
PITTSFIELD*    CLOUDY    85  76  74 CALM      30.14F HX  94
$$

ILZ028>032-037-038-041>044-048-051>054-059>061-282100-
CENTRAL ILLINOIS

CITY           SKY/WX    TMP DP  RH WIND       PRES   REMARKS
PONTIAC        TSTM      72  70  94 N10G18    30.20R
BLOOMINGTON    PTSUNNY   86  74  67 SE10      30.16F HX  94
DECATUR        SUNNY     89  70  53 SE9       30.14F HX  94
PEORIA         MOSUNNY   87  74  64 S7        30.13F HX  95
LACON*         CLOUDY    71  69  96 SE7       30.16F VSB 1
LINCOLN*       CLOUDY    88  76  68 SW3       30.14S HX  98
SPRINGFIELD    SUNNY     87  76  69 N5        30.13F HX  97
TAYLORVILLE    SUNNY     89  70  54 CALM      30.13F HX  94
$$

ILZ033-039-045-046-055>057-062-063-282100-
EAST-CENTRAL ILLINOIS

CITY           SKY/WX    TMP DP  RH WIND       PRES   REMARKS
CHAMPAIGN      MOSUNNY   89  72  56 MISG      30.16F HX  96
RANTOUL*       MOSUNNY   89  75  62 SE3       30.16F HX  99
MATTOON        SUNNY     88  70  55 S7        30.14F HX  93
PARIS*         MOSUNNY   89  74  62 CALM      30.15F HX  98
$$

ILZ079-100>102-282100-
SOUTHWEST ILLINOIS

CITY           SKY/WX    TMP DP  RH WIND       PRES   REMARKS
ALTON          MOSUNNY   90  70  51 SE6       30.12F HX  95
BELLEVILLE     MOSUNNY   92  72  50 VRB5      30.10F HX  99
CAHOKIA*       MOSUNNY   93  68  43 S7        30.11F HX  97
SPARTA*        MOSUNNY   90  74  60 SE3       30.12F HX  99
$$

ILZ064>066-069>071-074>076-080>082-084>086-088>090-092>094-282100-
SOUTH-CENTRAL ILLINOIS

CITY           SKY/WX    TMP DP  RH WIND       PRES   REMARKS
CARBONDALE     SUNNY     90  71  53 SE6       30.11F HX  96
CAIRO*         SUNNY     90  77  64 E7        30.09F HX 102
EFFINGHAM*     SUNNY     91  71  53 E3        30.14F HX  97
MARION         MOSUNNY   93  75  55 S7        30.13F HX 104
MT. VERNON     MOSUNNY   93  72  49 S6        30.12F HX 100
CENTRALIA*     SUNNY     91  75  60 SE5       30.11F HX 102
SALEM*         PTSUNNY   92  73  53 E3        30.13F HX 100
METROPOLIS*    MOSUNNY   94  72  49 CALM      30.11F HX 102
$$

ILZ067-068-072-073-078-083-087-091-282100-
SOUTHEAST ILLINOIS

CITY           SKY/WX    TMP DP  RH WIND       PRES   REMARKS
LAWRENCEVILLE  MOSUNNY   89  71  55 SE5       30.12F HX  95
FLORA*         MOSUNNY   91  73  56 CALM      30.12F HX  99
FAIRFIELD*     MOSUNNY   91  75  61 SE3       30.11F HX 101
HARRISBURG*    SUNNY     91  75  59 E7        30.12F HX 101
ROBINSON*      PTSUNNY   90  73  58 S5        30.13F HX  98
CARMI*         CLOUDY    86  74  68 S5        30.12F HX  94
$$

ABBREVIATIONS USED IN REMARKS
   TC - TEMPERATURE IN CELSIUS
  WCI - WIND CHILL INDEX
   HX - HEAT INDEX
  VSB - VISIBILITY
$$





USA.gov is the U.S. government's official web portal to all federal, state and local government web resources and services.